Location: Unspecified
(0.0000°N, 0.0000°E)
Time: 07:01:06
(UTC+00:00)

N. Korean satellite - Pass Details

Date: 23 September 2021
Orbit: 448 x 499 km, 97.3° (Epoch: 17 September)

Event Time Altitude Azimuth Distance (km) Brightness Sun altitude
Rises 04:38:08 0° 20° (NNE) 2,539 10.5 -18.6°
Reaches altitude 10° 04:40:13 10° 25° (NNE) 1,669 9.6 -18.0°
Maximum altitude 04:43:42 49° 101° (E) 643 7.6 -17.2°
Drops below altitude 10° 04:47:15 10° 177° (S) 1,695 9.4 -16.3°
Sets 04:49:22 0° 182° (S) 2,583 10.2 -15.8°
